Theta_e
338 339 339 339 340 339 342 341 342 342 347 347 347 347 346 348 352 353 355 358 359 358 357 355 353 355 355 351 352 354 359 358 355 357 359 361 363 366 371 366 371 370 373 370 368 370 371 371 370 368 369 367 364 365 367 362 368 366 366 374 360 366 364 363 357 359 356 354 362 354 363 358 359 361 350 346 345 346 350 351 354 348 349 353 359
338 339 338 340 338 340 341 340 344 339 345 345 347 348 348 348 351 351 355 357 359 358 359 357 358 355 353 351 352 353 358 359 357 359 359 361 369 369 370 367 370 371 373 372 370 370 371 368 367 368 372 373 369 369 368 367 369 367 365 364 369 364 366 354 353 358 361 345 349 347 349 353 364 351 345 342 343 343 346 352 351 342 342 343 348
337 338 338 340 339 341 341 340 341 340 343 343 347 348 349 352 355 356 355 356 358 358 361 360 360 362 356 354 352 353 357 357 357 360 360 361 363 366 371 369 370 369 371 371 367 368 370 370 370 370 371 368 369 368 369 367 374 363 367 367 362 362 365 364 361 360 352 354 360 356 345 344 356 352 347 346 342 341 340 342 345 344 344 346 346
336 338 336 339 338 342 341 341 340 341 343 343 345 348 347 356 357 358 357 356 359 361 361 360 361 365 366 366 361 360 359 363 363 362 363 360 359 362 369 370 368 365 366 366 369 368 369 370 368 366 371 373 373 372 368 368 367 375 363 363 363 353 353 357 358 361 356 351 345 346 343 342 341 345 347 353 355 342 340 339 342 339 341 351 351
337 337 337 338 337 339 341 342 340 340 342 343 345 346 347 351 356 359 359 358 359 362 363 365 364 364 364 364 366 365 364 362 360 359 359 361 359 362 363 368 369 365 365 366 367 371 370 369 371 372 368 372 369 371 372 361 364 363 365 368 364 359 356 355 360 352 353 359 360 355 341 343 345 342 347 352 346 341 339 340 350 340 341 352 363
340 338 338 338 339 340 342 342 340 341 343 343 346 346 348 351 356 360 360 360 357 361 365 365 364 362 363 360 358 361 357 357 356 355 353 356 354 358 363 362 363 364 366 369 367 369 370 371 371 368 368 374 368 367 369 366 366 361 365 363 363 365 364 356 351 363 352 365 362 361 358 349 350 343 345 344 357 349 345 336 347 339 340 352 355
341 340 340 339 340 339 342 342 341 341 342 345 346 347 350 353 357 358 359 360 359 361 365 365 363 364 362 358 356 357 355 358 363 357 357 359 361 359 363 362 366 362 361 367 368 369 371 372 373 372 369 369 370 372 367 359 355 360 362 366 367 375 368 363 359 353 364 366 350 348 353 359 350 358 347 354 343 355 348 337 339 338 339 342 342
341 342 341 340 342 341 341 342 341 342 343 344 345 346 353 357 358 359 360 360 361 361 364 365 363 364 364 361 360 358 353 357 361 361 359 361 361 359 360 361 364 366 364 371 371 368 370 372 372 370 370 365 371 371 365 363 368 368 367 369 372 370 369 364 361 356 360 365 362 356 357 354 354 355 357 352 351 350 347 349 337 337 339 342 343
342 339 340 340 342 342 343 342 342 343 343 344 344 347 353 357 359 361 361 361 363 362 363 364 365 364 362 359 361 361 358 358 360 361 363 362 361 362 366 361 367 371 367 368 368 370 371 371 371 373 369 368 368 366 365 363 362 366 369 373 371 369 370 368 366 367 358 353 366 359 357 358 346 351 349 354 359 348 345 339 343 346 341 341 351
343 342 343 343 342 344 344 344 342 342 343 346 345 346 349 356 359 360 361 360 361 363 364 365 365 365 362 361 360 360 361 362 360 364 365 366 362 363 368 370 360 367 365 368 372 369 370 372 367 365 367 365 363 369 363 365 368 368 368 364 372 369 373 372 366 371 366 365 359 362 368 361 357 356 345 348 350 352 348 343 344 349 347 350 349
345 344 344 345 345 347 346 344 343 342 344 344 344 346 348 352 357 358 361 360 362 362 364 362 364 364 361 362 360 359 361 360 362 361 364 364 362 360 365 370 363 362 364 366 368 367 368 372 363 364 365 369 368 369 367 361 359 362 362 367 368 367 368 368 365 368 366 368 362 366 367 354 361 358 352 350 348 350 350 340 343 347 335 339 350
346 345 345 345 348 346 347 347 343 343 343 343 343 346 349 353 356 358 361 362 362 362 362 360 361 362 362 362 362 361 361 356 359 358 361 360 359 361 365 366 368 362 363 364 361 361 367 368 368 365 370 370 368 370 368 364 364 365 368 370 371 367 370 369 364 365 360 368 361 355 355 352 358 355 351 363 357 355 346 347 348 351 353 348 348
347 346 348 346 345 344 346 347 350 349 347 345 343 344 348 354 357 358 360 362 362 362 361 361 361 360 361 360 363 363 362 362 361 361 361 362 362 361 365 364 370 368 363 359 359 361 368 370 367 369 368 371 376 373 370 367 371 367 367 362 368 367 368 369 368 365 361 362 354 356 352 352 359 352 359 346 351 364 363 354 343 344 350 347 343
345 345 346 347 345 345 348 348 348 349 347 346 345 347 350 351 358 356 360 362 363 364 362 362 360 360 362 361 362 364 362 362 361 358 357 362 365 363 358 358 365 363 360 364 357 359 363 366 369 369 374 372 373 374 372 370 370 373 368 370 363 373 371 369 371 365 367 363 363 361 353 354 349 359 356 356 349 348 348 344 362 356 344 345 353
346 345 346 347 347 348 347 348 349 348 350 347 346 350 352 354 359 359 360 361 363 364 364 363 359 359 360 361 361 362 361 360 360 361 361 360 357 358 363 359 359 362 367 367 368 365 365 367 368 370 372 373 373 372 368 371 370 369 369 368 373 367 368 368 369 359 359 357 361 368 362 355 356 367 366 350 355 354 353 357 356 349 348 347 348
347 346 346 346 349 351 350 348 349 350 352 349 349 355 351 355 360 360 360 360 361 364 364 363 361 359 361 360 361 362 363 360 364 364 364 361 361 362 363 368 362 365 365 368 366 366 366 365 367 367 373 369 371 372 371 370 371 368 368 367 366 363 366 365 367 363 360 361 359 368 368 356 358 359 358 357 359 361 360 360 372 359 352 347 352
348 348 348 348 349 349 351 352 350 349 349 350 356 357 358 357 358 359 361 360 360 364 363 363 364 361 360 360 359 360 358 357 354 356 352 356 361 360 359 358 361 366 362 363 364 369 368 366 363 361 368 370 370 371 370 372 372 371 366 367 365 361 368 369 368 364 367 358 359 359 367 364 365 367 369 365 372 373 367 377 375 361 359 355 349
345 348 348 349 349 348 348 348 349 349 349 349 358 359 359 358 359 359 361 360 359 359 361 362 363 361 361 360 359 357 354 354 356 355 353 355 359 360 358 359 358 356 358 357 363 362 368 368 367 366 364 365 365 366 369 369 370 369 368 370 370 369 368 372 372 367 367 368 366 360 357 363 367 362 362 360 369 378 366 366 366 368 369 358 357
342 343 346 348 348 350 352 352 350 352 352 352 356 353 354 357 359 357 358 360 359 359 360 362 362 359 359 358 357 357 357 356 356 358 356 354 352 353 353 356 355 361 366 366 363 361 364 365 368 364 366 366 367 365 368 369 369 364 365 367 368 371 369 370 373 370 365 368 368 363 365 365 366 371 368 360 372 372 372 371 374 386 369 364 362
339 341 345 347 349 349 348 349 350 353 354 354 355 353 354 357 358 359 359 361 361 359 361 360 359 360 358 361 361 361 361 358 358 358 354 352 353 353 353 352 354 356 356 361 362 360 361 360 360 359 358 359 362 361 362 367 366 364 362 361 363 368 365 366 363 363 362 362 365 364 367 368 375 374 368 364 366 367 371 373 369 370 369 366 366
340 342 344 345 349 349 351 354 356 355 354 353 349 350 352 354 354 354 355 356 358 358 358 359 361 360 361 360 359 359 357 356 354 355 355 353 353 354 352 351 356 355 355 355 359 361 362 362 358 360 356 360 363 362 362 364 365 367 367 366 364 367 365 365 366 365 359 362 364 364 367 369 372 369 368 364 362 366 370 370 372 370 367 367 364
340 342 343 345 347 350 352 353 352 353 353 352 352 354 352 348 350 352 352 354 354 353 355 358 357 358 356 359 359 358 357 357 354 352 353 352 352 353 355 354 351 355 354 352 357 356 360 360 359 359 360 360 363 366 358 360 363 364 363 359 363 366 366 365 365 364 363 360 365 365 366 366 370 368 364 359 359 356 357 358 363 362 364 363 365
337 339 341 343 346 348 350 351 353 354 354 358 353 350 348 349 350 353 352 354 354 355 356 359 353 354 355 358 359 358 358 356 353 351 349 349 351 351 354 352 348 349 353 353 355 354 361 362 359 361 361 360 364 361 359 359 360 364 362 358 356 362 363 362 362 364 362 362 361 362 361 363 359 360 361 357 356 358 359 362 362 359 360 358 363
336 338 339 340 341 344 346 348 349 351 353 356 355 353 353 352 353 350 353 354 355 359 359 359 357 352 349 350 355 358 357 355 352 350 349 348 349 350 352 351 349 348 348 352 354 355 359 363 361 364 362 360 363 359 358 359 363 363 361 362 366 363 360 361 360 360 359 360 359 361 359 359 360 361 362 363 365 363 364 364 363 370 367 366 369
333 335 336 337 337 338 341 344 346 347 349 351 351 355 353 355 354 353 355 356 357 357 357 355 355 358 358 353 349 352 354 355 352 349 349 349 349 350 351 350 348 345 347 349 353 357 358 359 355 359 361 360 361 360 361 357 358 360 361 359 361 364 365 363 361 362 363 362 360 358 359 360 363 361 363 359 358 361 363 360 361 363 362 362 363
329 332 333 333 334 335 338 341 342 343 345 346 348 351 351 351 353 355 353 354 356 359 358 355 356 357 357 356 353 351 351 352 353 351 348 348 348 348 350 350 349 347 348 348 350 351 355 357 356 357 359 360 361 361 362 361 357 356 359 358 361 362 360 362 362 362 362 362 359 360 360 362 359 357 355 357 361 362 363 359 357 360 367 369 364
327 328 330 332 332 333 334 337 339 340 341 343 346 348 349 352 352 356 356 354 358 359 357 356 356 355 352 353 352 348 348 350 351 351 349 348 346 345 346 349 350 349 346 344 347 350 352 355 356 357 357 360 361 361 363 364 362 361 359 358 357 360 359 360 359 358 357 358 358 358 360 361 360 360 357 357 361 360 358 359 364 364 360 360 358
326 326 327 329 330 332 333 333 336 338 339 342 342 343 349 351 350 352 355 355 358 359 357 355 356 356 353 352 353 355 355 353 351 354 352 348 347 345 345 347 350 349 346 344 344 347 350 351 355 355 357 361 362 360 364 365 363 361 359 360 358 357 356 357 357 358 356 355 356 356 353 356 357 360 359 359 362 360 360 358 359 363 363 363 360
324 325 326 327 328 330 331 332 333 336 338 339 341 341 344 345 347 350 354 355 359 357 354 355 356 357 356 355 356 356 356 355 353 357 356 353 349 349 348 348 350 347 345 345 343 344 348 348 350 354 356 357 357 357 358 361 362 361 360 356 357 357 356 356 356 354 355 356 354 353 352 352 358 368 363 362 362 364 358 360 363 364 366 365 362
323 324 324 326 327 328 329 331 332 332 334 336 339 341 342 344 344 346 350 352 356 356 355 356 358 356 355 354 356 355 354 356 353 351 357 359 355 351 347 347 348 348 349 351 350 347 346 348 348 352 354 353 354 355 355 348 353 359 359 355 355 356 355 356 357 356 353 353 350 349 348 361 366 370 365 359 356 361 367 359 366 367 367 364 363
324 325 324 325 326 327 327 329 330 331 332 334 335 337 340 341 343 345 348 351 353 354 353 353 354 355 358 358 355 355 355 354 356 356 354 353 356 353 353 359 358 352 351 355 352 348 344 344 347 347 350 349 350 350 344 336 340 347 359 360 357 358 358 358 357 357 354 350 350 350 349 356 364 373 369 360 356 355 355 357 358 363 370 366 365
322 324 325 325 325 326 327 326 327 329 331 332 335 336 337 339 342 344 347 348 349 350 352 354 355 356 356 355 357 357 357 357 355 355 357 353 354 351 354 360 361 354 367 359 350 350 350 345 344 347 347 348 349 346 333 333 335 337 347 360 358 356 355 356 357 355 355 352 350 348 348 346 349 356 362 364 359 354 350 350 349 350 351 353 356
321 321 323 324 324 325 327 326 328 328 330 332 334 335 336 337 342 342 345 346 346 346 347 350 353 355 355 356 356 355 356 357 357 358 356 355 356 355 353 349 351 353 355 359 362 355 353 353 348 349 345 347 349 341 329 330 332 333 336 350 356 356 352 350 353 355 355 355 353 351 350 349 344 365 360 358 358 357 348 345 347 348 349 347 339
321 321 321 322 323 323 326 327 328 331 331 334 335 335 336 337 339 341 343 344 344 344 345 345 348 351 353 354 356 356 355 356 358 356 354 353 352 354 353 354 352 352 352 355 354 354 357 357 354 354 357 351 349 343 327 326 328 330 332 340 355 353 352 350 351 353 354 355 357 356 354 353 353 354 360 364 362 359 358 354 354 354 357 356 348
320 320 321 322 323 323 324 325 325 328 331 330 332 334 337 338 339 340 341 342 342 342 342 342 343 345 347 349 352 354 355 355 357 357 354 353 353 353 353 355 354 354 351 351 351 355 355 358 356 355 354 353 348 336 325 323 323 325 329 336 355 351 348 348 350 353 355 353 356 356 356 355 355 356 356 356 360 366 364 361 357 355 355 356 356
318 318 319 320 321 323 322 325 325 323 326 328 330 333 334 335 337 336 337 338 339 340 341 341 340 341 343 345 347 349 351 353 355 356 355 354 354 354 354 358 357 356 355 357 356 352 353 357 358 357 354 353 352 334 322 321 321 323 327 343 352 354 350 348 347 348 349 353 355 357 358 356 355 357 357 348 352 356 357 362 364 364 363 361 360
319 318 317 320 321 322 322 325 328 322 324 326 330 333 333 335 335 337 340 338 337 337 338 340 341 341 341 343 346 348 349 350 352 354 354 355 355 355 357 359 357 357 355 353 355 352 355 350 350 354 355 356 356 344 323 317 318 320 326 346 352 353 353 352 350 351 353 352 350 350 351 352 357 359 353 338 338 349 352 350 352 354 355 355 358
317 319 318 319 321 321 322 320 321 320 323 328 329 332 332 332 334 336 335 335 335 335 337 338 339 340 342 342 344 346 349 350 350 349 352 355 357 357 357 360 359 357 355 353 352 353 354 354 351 350 351 353 356 350 325 315 315 317 329 346 351 354 354 355 354 355 357 357 358 359 359 351 348 350 341 333 333 344 352 351 350 348 349 350 353
317 317 316 317 319 320 320 320 321 318 321 324 326 331 326 326 327 330 331 333 334 335 336 337 338 340 342 343 344 346 347 347 348 349 349 351 353 353 355 357 358 357 356 357 356 352 352 353 354 354 352 350 352 350 328 316 315 315 327 347 352 353 353 354 355 355 358 358 359 360 359 353 351 348 333 330 329 343 354 354 353 350 347 346 347
316 316 317 319 322 320 318 317 317 319 320 324 322 324 326 325 324 328 327 327 331 333 337 338 339 340 341 344 345 345 345 345 346 348 350 352 353 353 352 352 355 358 355 355 357 356 353 353 356 355 353 352 352 355 351 316 314 313 318 347 355 354 352 353 355 355 356 358 358 359 356 336 329 329 328 326 324 325 351 356 356 352 349 348 351
315 315 320 317 318 317 316 317 320 322 319 320 321 324 325 326 325 325 327 327 331 335 338 338 340 339 340 341 342 343 345 346 348 349 351 351 353 352 352 352 353 355 356 356 355 354 353 352 352 353 354 354 355 357 357 319 313 312 314 326 353 355 355 355 356 355 356 355 357 359 359 344 327 324 323 321 320 318 331 355 358 356 354 354 357
317 319 318 316 316 317 317 317 317 318 319 320 322 324 325 326 326 325 326 328 329 334 335 336 338 339 341 341 337 341 343 344 347 347 341 343 351 353 353 353 353 353 352 351 351 353 352 352 354 355 356 358 363 361 361 329 314 312 312 315 346 356 356 356 355 356 356 356 356 358 361 350 328 324 322 320 318 320 320 347 356 337 337 337 352
315 316 316 315 315 315 315 315 315 317 320 321 321 323 323 325 324 327 328 329 329 330 333 335 337 337 339 340 342 341 337 338 341 343 342 344 348 349 351 351 350 350 349 347 348 351 353 352 353 354 356 357 360 361 343 351 324 310 311 311 321 340 336 357 354 354 355 356 359 360 362 355 328 319 318 318 318 319 322 334 327 327 328 331 344
315 315 316 317 315 315 314 315 316 319 320 321 322 322 323 323 325 328 329 329 329 330 334 334 335 334 334 338 340 341 342 344 341 343 348 347 347 348 346 348 351 349 347 347 348 347 347 346 346 348 351 353 357 354 346 335 341 316 310 309 310 314 321 347 355 354 356 358 358 359 359 330 327 314 311 315 317 319 330 322 319 323 326 332 346
315 315 318 317 315 314 315 316 317 319 320 322 322 322 322 322 326 329 329 329 330 329 329 330 332 331 332 333 336 338 341 344 346 349 348 349 348 347 345 343 345 348 348 347 349 345 344 345 347 347 350 353 355 357 356 346 330 322 311 308 309 313 316 315 335 350 356 357 340 318 316 322 321 319 311 311 314 315 313 316 318 320 329 341 345
315 315 315 315 315 315 315 316 317 319 319 322 321 321 321 323 324 327 327 327 328 328 328 329 328 329 330 330 329 328 331 338 343 347 345 347 344 350 348 345 341 344 349 349 349 348 346 345 345 347 348 351 354 354 353 354 349 344 332 315 310 311 315 316 321 333 326 320 318 318 317 319 323 326 334 338 342 342 322 317 318 322 335 341 344
313 314 315 314 314 314 315 316 316 318 319 319 320 320 322 324 326 324 324 328 326 325 327 328 329 328 329 329 328 326 327 329 333 337 344 345 344 348 351 351 347 347 348 351 349 347 345 345 345 345 346 348 349 350 352 351 351 355 356 347 329 329 325 323 329 334 331 336 337 337 338 330 330 332 334 335 340 344 341 332 329 331 335 340 344
314 314 315 314 314 314 314 315 316 318 319 320 320 320 320 322 322 324 324 325 326 326 325 325 325 328 328 329 328 331 333 331 335 338 337 340 348 347 344 343 344 345 343 342 341 343 346 348 348 348 349 349 349 349 348 348 352 354 353 357 355 350 347 346 342 344 346 345 344 336 335 343 346 347 347 348 347 348 347 347 343 338 338 341 344
312 313 313 313 313 313 314 315 316 317 318 318 319 320 321 322 323 324 325 324 325 326 326 326 326 327 329 332 331 332 330 330 334 337 335 342 339 337 345 346 345 349 346 340 338 338 339 340 343 345 346 347 347 345 349 337 346 334 345 353 352 352 352 354 352 334 348 349 347 346 346 347 348 347 347 348 349 351 351 350 351 350 346 345 345
312 312 312 313 313 313 313 314 315 316 317 318 318 320 321 321 322 323 324 323 323 324 324 325 326 326 327 328 328 326 329 331 329 327 328 333 338 326 333 338 338 340 331 323 322 336 341 339 337 339 341 340 343 349 326 317 314 313 312 315 318 317 318 335 336 321 334 345 347 348 349 349 351 350 349 350 350 351 352 352 352 342 349 350 347
311 310 311 311 312 313 314 314 315 317 316 317 318 318 320 320 321 322 321 322 322 322 322 323 325 325 326 327 326 326 328 331 331 330 331 331 330 336 316 313 322 329 323 316 307 308 308 313 331 335 335 326 324 319 313 310 307 305 303 304 307 310 309 309 308 326 341 343 345 346 348 349 349 350 350 351 352 353 353 352 353 353 353 351 348
Wind_Speed
14 16 16 15 15 14 12 11 10 12 10 13 11 11 11 8 10 9 7 9 7 7 6 6 6 5 5 7 7 6 4 5 6 6 6 6 7 6 5 6 5 5 5 5 3 2 1 3 4 1 3 5 4 2 2 5 3 2 1 2 2 1 1 2 2 3 3 2 3 2 1 2 1 2 5 4 4 3 5 5 3 4 5 4 3
17 14 16 15 14 16 14 11 12 13 10 13 12 11 10 11 12 10 8 8 7 7 6 6 5 4 6 6 7 6 5 4 5 4 5 7 6 5 5 6 6 5 4 4 4 4 3 3 5 3 1 3 3 2 3 2 2 2 2 2 2 2 2 2 4 2 1 4 2 3 3 3 1 3 5 5 4 5 4 3 4 6 5 4 4
16 16 17 15 17 17 14 12 12 13 14 14 12 11 11 9 8 8 8 8 7 8 6 5 5 4 5 5 6 6 6 5 5 7 7 8 7 5 4 5 5 5 5 5 4 3 4 3 3 4 3 3 2 3 3 3 2 3 2 1 1 2 1 2 3 2 2 2 2 1 2 1 1 3 7 2 5 5 6 6 6 7 7 6 6
17 16 18 16 17 15 14 13 12 12 12 13 13 12 11 8 9 8 8 8 7 7 6 6 5 4 4 3 3 4 4 4 5 5 5 7 8 7 5 5 5 6 7 6 4 5 4 3 2 5 3 3 3 3 3 3 2 1 2 4 2 1 2 2 2 1 2 3 2 1 3 2 1 3 4 2 0 3 5 5 5 5 4 4 5
15 17 17 16 17 16 15 13 14 13 13 14 13 13 10 12 10 8 8 8 7 8 6 6 5 4 5 4 3 4 3 4 5 4 5 5 6 6 7 6 5 5 6 6 4 4 4 3 2 3 4 4 4 3 2 3 2 4 2 3 3 3 2 3 2 3 4 3 1 2 3 1 1 2 1 3 3 4 3 2 3 8 5 4 2
13 16 17 16 17 15 15 14 15 14 13 14 13 14 12 11 11 8 7 7 8 8 6 6 5 6 6 4 4 4 5 5 5 6 6 7 8 7 7 8 7 5 5 3 6 5 5 5 4 4 4 4 3 2 2 2 2 3 2 3 4 2 2 2 1 2 3 1 2 1 2 2 1 5 2 2 3 5 3 6 3 7 5 3 4
12 15 16 17 16 16 16 15 16 15 14 14 13 13 13 12 11 9 8 6 7 8 7 7 6 5 7 7 6 5 6 5 5 7 7 5 3 6 5 6 7 7 6 7 5 5 4 3 3 3 2 4 4 3 2 1 3 2 5 4 3 1 3 3 4 2 2 1 2 2 3 1 0 1 2 1 3 4 3 4 3 7 7 6 5
10 9 15 17 16 16 16 16 15 15 15 15 14 14 12 12 12 10 8 7 6 9 7 7 7 6 6 6 5 5 7 6 5 5 6 6 6 6 6 5 6 5 5 6 5 5 4 4 3 4 2 1 2 3 3 2 3 3 5 3 3 3 2 2 2 3 3 2 4 3 2 3 2 1 1 0 2 1 3 1 6 8 8 7 8
16 16 17 17 16 16 15 15 16 16 15 15 13 13 12 13 12 10 9 8 7 11 7 7 7 7 6 5 4 4 4 5 4 4 4 6 7 5 4 6 4 4 6 6 6 6 4 4 3 4 4 3 4 1 4 3 4 2 3 2 2 3 3 3 1 0 2 1 1 3 4 1 3 1 2 3 1 2 2 3 3 3 4 5 3
13 13 13 15 14 15 16 16 16 15 15 15 14 14 13 12 13 11 10 9 8 11 8 8 8 7 7 5 7 5 4 4 4 4 4 5 6 6 4 4 6 5 6 5 4 5 5 4 4 5 4 3 5 1 3 4 4 2 3 2 1 3 3 0 2 2 0 2 2 2 1 3 4 1 3 3 1 2 3 1 1 1 3 1 4
7 9 11 13 15 13 15 17 15 14 14 15 14 14 14 14 14 13 11 9 9 11 10 9 8 8 6 6 7 6 5 5 4 4 4 4 5 6 6 4 5 6 5 5 5 6 6 5 5 5 3 5 4 3 3 3 4 3 4 2 3 3 1 1 1 2 2 3 2 3 1 3 2 2 2 3 2 1 2 5 2 1 4 3 3
9 9 9 8 10 13 12 12 14 13 15 15 14 14 14 13 14 13 12 11 10 11 11 11 9 8 7 7 7 6 5 6 5 6 5 5 5 6 6 5 4 6 6 6 6 8 5 5 4 5 4 3 5 3 2 3 2 4 3 2 3 4 3 2 2 3 3 3 2 2 4 4 2 3 2 1 1 2 3 3 4 2 1 2 2
7 2 5 9 11 13 14 15 11 9 10 13 14 15 14 13 14 14 13 12 11 12 12 12 9 9 8 8 7 6 6 6 5 6 5 5 5 5 5 5 4 4 5 7 6 7 6 5 5 5 5 3 2 5 3 2 4 2 2 3 2 2 2 3 2 3 3 1 3 2 3 2 1 4 2 3 3 2 1 1 4 5 2 2 3
8 10 9 10 11 11 11 11 10 10 11 14 14 12 12 13 14 15 13 12 11 12 13 12 10 9 8 8 7 6 7 6 6 6 7 5 5 5 6 6 5 6 5 5 7 8 8 6 5 5 4 5 4 4 4 3 4 2 1 2 2 0 1 1 2 3 2 3 1 3 4 3 5 1 2 1 4 4 3 3 2 2 4 3 1
12 9 10 9 10 10 12 12 11 12 9 12 13 11 12 12 13 14 13 13 12 13 12 12 11 10 9 8 8 7 7 6 6 6 6 6 6 6 5 6 6 5 4 5 4 6 7 6 6 6 4 5 5 4 4 4 4 3 2 2 1 1 3 3 2 2 5 5 2 2 1 2 4 2 1 3 2 2 2 1 3 3 4 5 2
9 12 14 14 11 11 10 10 11 10 10 10 12 7 12 11 14 14 14 13 13 12 11 12 11 10 10 10 9 8 7 7 6 6 5 6 6 5 5 4 6 5 5 5 5 5 5 7 7 7 6 6 6 5 5 4 5 4 3 3 3 2 3 3 3 3 3 3 2 2 2 2 2 4 3 4 4 3 4 5 1 2 1 3 3
3 2 2 8 9 7 8 8 8 10 11 10 6 5 6 10 14 14 13 14 14 12 13 11 10 10 11 11 10 9 10 10 10 10 11 8 6 6 6 6 5 4 7 6 6 4 6 6 6 8 7 5 6 5 5 4 4 4 5 4 4 4 2 1 0 0 2 2 2 2 2 3 1 3 1 2 0 2 2 1 1 1 3 0 2
2 2 2 3 6 10 12 13 13 10 10 10 5 3 7 4 12 14 14 14 14 15 15 13 11 11 11 11 11 11 12 12 10 10 9 7 6 6 6 7 7 7 7 8 6 7 5 6 6 5 8 7 7 7 6 6 5 4 4 5 5 4 4 2 2 2 1 1 1 1 4 1 2 3 2 2 3 1 1 2 2 2 3 1 1
2 2 2 5 6 5 5 6 10 10 9 3 7 9 3 2 4 12 15 16 16 14 14 11 13 11 11 12 13 11 11 10 9 9 9 8 10 9 8 7 9 6 4 4 6 7 6 6 5 6 6 7 7 6 7 6 7 4 4 5 4 3 3 3 3 3 3 1 1 2 1 2 2 1 1 1 2 2 2 2 2 1 3 2 1
4 2 4 7 7 5 5 6 6 6 7 4 4 4 4 5 5 8 13 12 11 14 12 13 14 12 11 11 11 9 9 9 9 9 10 10 10 10 10 10 9 7 7 5 6 7 7 9 8 8 8 8 8 7 8 7 8 7 6 6 5 5 5 4 4 4 4 3 2 4 3 3 1 1 2 3 4 4 1 2 1 1 1 1 1
3 4 2 5 6 5 6 3 7 8 4 6 5 4 7 6 6 8 5 8 13 11 12 11 10 11 11 12 13 12 13 11 12 11 11 9 9 9 10 8 7 7 7 8 6 7 8 8 9 8 9 7 7 7 6 6 6 6 5 5 6 6 5 5 4 4 4 4 4 4 3 3 2 3 3 3 3 3 3 3 2 1 2 2 3
8 6 7 5 2 4 3 6 7 5 5 5 6 7 8 8 6 3 7 5 10 9 12 7 7 10 12 12 13 12 12 11 13 12 12 11 10 9 8 8 10 8 8 10 9 8 8 9 9 9 6 7 7 6 9 6 7 7 6 6 6 7 6 6 6 6 4 5 3 3 4 4 4 3 3 4 4 4 4 4 5 4 4 4 4
7 7 10 11 7 1 2 5 6 7 6 4 5 7 7 7 8 7 7 6 9 8 3 7 7 10 7 9 12 12 12 13 15 13 15 14 12 12 9 10 11 11 9 8 10 10 6 7 8 6 7 6 7 8 6 6 7 8 8 7 8 9 8 7 7 5 6 6 6 6 7 4 5 6 5 4 4 3 3 2 3 5 5 4 4
9 8 9 10 10 10 7 4 5 4 4 4 3 2 2 4 6 8 10 10 9 6 4 3 5 8 4 10 11 12 15 15 15 14 16 15 14 13 11 11 12 11 11 9 8 10 8 7 7 6 8 6 6 7 7 6 6 7 8 7 5 6 8 7 6 7 6 6 6 5 5 5 5 4 4 3 3 3 3 3 2 2 3 3 2
10 11 11 12 12 13 10 9 7 4 5 4 3 2 2 1 2 0 2 4 1 1 5 5 2 2 4 7 8 16 15 16 16 15 16 17 15 14 12 12 12 12 12 11 8 8 9 9 10 8 7 7 6 6 7 8 7 6 6 7 6 5 4 6 7 6 6 6 6 6 6 5 4 3 3 4 3 4 3 3 3 3 4 3 3
11 12 13 14 11 11 11 10 9 9 7 4 6 4 4 2 1 1 1 1 1 2 4 6 6 5 5 7 9 10 17 18 17 16 17 16 16 14 14 13 13 12 9 12 11 9 9 11 10 9 8 8 7 7 7 7 8 8 6 7 6 6 6 5 4 5 5 5 5 5 5 5 5 5 4 4 4 4 3 4 4 4 2 2 3
12 12 11 12 12 12 11 11 11 11 11 9 6 5 3 2 2 3 3 5 5 5 3 4 5 8 7 8 9 10 13 18 16 15 14 14 15 15 15 15 13 12 11 12 13 11 9 10 11 10 10 9 9 9 7 8 7 6 7 8 7 7 7 6 6 7 7 7 7 6 6 5 5 4 5 4 4 5 4 4 4 4 4 3 3
12 12 12 13 12 12 12 11 12 11 11 9 8 9 8 7 7 5 2 2 1 3 3 2 2 3 4 7 7 7 9 15 14 11 11 13 13 13 12 11 11 12 12 12 13 13 11 10 10 11 9 8 9 9 8 8 8 7 6 7 8 7 8 7 7 8 8 8 8 8 8 8 7 6 6 5 4 5 5 5 5 3 3 4 4
13 12 12 12 12 11 12 12 12 11 10 9 8 7 8 7 7 7 6 3 2 2 2 4 5 3 2 2 4 7 10 12 19 11 10 10 11 10 9 9 10 11 12 12 11 12 13 11 10 9 9 10 11 11 9 9 8 9 8 8 8 9 8 8 8 9 8 8 7 8 9 9 8 12 13 11 10 7 5 4 4 4 3 4 4
13 12 12 12 12 12 12 12 12 13 12 10 7 6 6 7 6 6 6 6 5 1 1 2 1 1 0 2 1 2 1 8 10 15 14 10 9 9 10 10 9 11 9 8 7 8 10 12 11 10 10 11 10 11 11 16 13 9 9 10 8 8 8 8 7 7 8 9 10 9 9 14 15 18 18 16 15 13 9 6 3 3 4 4 4
12 11 12 12 12 12 12 12 12 12 11 10 6 7 6 8 7 6 7 8 7 6 5 3 2 2 2 3 3 2 2 1 5 6 9 14 15 10 6 4 5 7 8 8 8 8 9 10 13 12 12 12 12 11 15 17 17 16 11 9 8 7 8 8 8 7 7 8 8 9 8 9 9 9 10 16 16 15 13 11 10 9 6 4 3
12 12 11 12 12 12 12 12 12 12 11 10 6 6 7 7 8 7 8 8 8 9 8 6 5 5 5 2 2 0 1 1 1 1 1 5 9 15 18 11 4 5 3 4 9 8 7 9 9 12 13 12 11 13 15 18 18 18 15 10 9 8 8 9 9 9 8 8 8 8 8 9 7 7 5 9 12 15 14 14 14 13 13 12 10
11 12 11 11 12 11 11 12 11 10 10 11 9 7 8 9 9 8 8 9 9 9 8 8 8 7 6 6 3 2 3 2 0 2 3 5 5 4 3 11 15 11 6 5 4 6 7 6 8 6 10 13 11 15 14 19 19 19 19 14 10 9 10 9 9 10 9 7 7 8 8 6 8 12 12 10 10 12 15 18 16 16 15 14 14
10 11 11 10 10 10 10 10 10 8 9 9 8 8 8 8 8 7 8 8 9 9 8 9 8 8 7 6 6 6 3 1 3 3 2 3 6 8 10 9 8 5 10 12 9 8 6 6 8 8 5 7 10 14 16 18 20 20 20 17 12 11 10 10 9 9 9 9 8 7 8 8 7 6 4 5 7 8 8 9 9 8 7 11 13
11 10 10 9 9 9 9 9 10 9 8 9 9 8 7 8 8 7 8 9 8 9 8 8 9 8 7 7 6 7 6 3 2 4 4 5 4 2 1 3 3 6 7 6 6 11 8 8 9 10 9 9 10 12 17 19 20 20 20 18 13 12 10 9 8 8 9 10 10 11 10 9 8 7 7 8 5 6 8 9 9 10 10 10 9
9 10 9 9 9 8 9 7 9 9 8 9 9 8 8 9 8 9 10 10 8 8 8 8 8 9 8 7 7 6 4 4 4 3 5 3 2 4 3 4 3 4 5 3 4 4 9 11 10 9 10 11 12 12 12 16 20 20 21 12 13 12 10 9 9 8 8 7 7 8 9 11 10 10 12 14 12 8 6 7 9 9 9 10 10
9 9 10 9 8 8 8 7 8 9 7 8 8 8 8 8 8 8 7 8 8 8 8 7 7 7 8 8 7 6 6 6 5 5 4 3 2 1 1 1 2 3 4 5 5 4 1 1 8 13 13 12 11 14 11 15 16 17 13 10 13 11 10 10 9 8 7 7 7 8 8 8 9 9 12 16 15 13 9 9 9 9 9 10 10
7 8 8 8 7 7 7 8 9 9 7 6 7 7 7 7 7 6 7 8 8 9 8 8 7 6 6 7 7 7 7 7 5 5 6 5 3 2 2 2 3 4 6 6 5 4 4 6 6 9 9 13 15 13 13 15 17 17 16 11 11 10 10 10 9 9 8 7 8 13 11 10 11 10 12 14 15 12 10 10 10 11 11 11 10
8 9 9 8 6 6 7 8 9 10 7 7 7 7 8 8 8 8 8 8 8 8 8 8 8 7 6 7 7 7 7 7 7 6 5 6 5 4 3 2 4 5 6 5 5 6 7 7 8 8 12 13 12 18 15 15 17 18 16 11 11 10 10 10 9 9 9 8 8 10 14 13 11 12 15 13 14 12 10 11 11 11 12 12 11
8 9 8 6 6 7 8 9 9 8 8 8 8 8 8 7 8 7 8 8 8 7 7 6 6 6 6 7 7 7 7 7 6 6 6 6 4 5 5 4 4 3 4 5 6 4 6 7 7 9 9 10 11 14 14 17 18 18 20 13 9 10 11 11 10 9 8 8 9 9 12 16 18 17 15 14 13 14 11 10 10 11 12 14 10
8 8 6 6 7 8 8 9 7 7 9 9 8 7 7 7 7 7 8 8 7 6 6 6 6 6 6 5 6 6 6 6 5 6 6 6 4 5 5 4 5 5 5 5 6 6 6 7 7 8 10 12 12 13 13 15 18 19 21 18 11 11 11 10 9 8 8 9 8 9 10 13 18 19 18 17 13 14 14 11 10 11 12 11 6
7 7 8 7 7 7 7 8 9 9 9 8 7 7 6 6 6 7 7 7 7 6 6 6 6 6 5 3 3 4 6 5 5 5 6 8 7 5 4 5 4 5 7 6 7 6 6 7 8 9 10 11 13 14 11 11 17 18 19 22 13 12 11 9 9 8 8 9 9 8 8 11 17 19 20 20 20 17 17 12 14 17 17 14 10
8 8 9 9 7 7 8 9 8 9 8 8 9 8 6 6 6 7 6 6 6 7 6 6 5 6 6 5 3 3 3 4 4 6 5 6 6 7 7 5 5 4 4 6 8 7 6 7 8 8 8 9 9 8 12 12 10 12 16 19 20 15 13 10 9 9 9 9 9 8 9 13 15 18 19 21 21 22 16 14 19 18 16 16 11
9 9 10 10 8 8 9 8 8 7 8 7 8 7 6 7 7 6 6 6 7 6 5 5 5 6 6 6 5 4 2 3 2 4 6 5 5 2 7 8 5 3 3 5 5 5 6 7 7 8 8 8 6 7 10 15 16 14 14 13 14 16 12 7 9 11 9 9 8 9 4 1 4 10 14 17 19 19 15 20 20 19 18 16 9
9 9 10 10 10 10 9 9 8 9 8 7 6 7 8 8 7 6 6 7 7 6 5 6 6 7 7 6 5 5 4 5 5 5 6 6 6 5 4 7 9 6 4 5 3 4 6 7 7 8 8 7 6 5 6 7 7 4 7 12 14 18 21 18 9 8 9 9 6 6 3 2 3 3 9 10 9 12 16 16 17 18 18 8 11
9 9 11 11 11 11 10 10 10 9 9 7 8 7 8 7 8 7 8 7 7 8 8 7 8 7 7 7 7 8 7 4 2 3 4 4 5 5 5 5 7 8 6 5 4 5 6 6 7 6 6 5 4 5 5 1 4 6 9 12 13 12 14 13 11 10 12 16 17 17 15 12 11 8 6 5 6 8 13 17 18 16 7 7 11
9 10 10 10 11 10 10 11 11 10 9 9 9 8 8 7 7 9 9 8 9 8 8 7 7 8 8 7 8 7 7 7 7 5 5 6 6 5 4 5 6 6 5 5 5 6 5 5 5 5 5 4 5 3 3 4 4 3 4 2 2 6 7 6 6 7 9 11 16 15 11 11 10 13 11 9 7 8 9 8 7 7 7 9 11
8 9 9 10 10 10 11 12 11 9 9 9 9 9 9 9 9 9 8 9 8 8 9 9 10 9 8 8 8 10 9 7 6 5 4 4 3 4 5 5 4 3 4 6 7 6 6 4 2 3 2 2 1 3 4 4 2 4 4 4 4 4 4 4 5 6 7 8 9 9 12 10 11 11 12 10 11 10 10 9 7 8 8 11 13
9 9 9 9 10 10 11 11 11 10 10 9 9 9 9 9 8 8 8 8 8 9 9 10 9 8 7 7 7 6 7 7 5 4 5 4 5 5 4 5 6 4 4 4 4 6 6 7 7 7 7 5 1 5 6 4 5 3 4 2 4 6 5 5 5 6 7 7 7 8 9 9 8 8 9 10 11 11 11 12 13 10 7 8 9
8 8 9 10 10 11 11 11 10 10 9 9 9 9 9 9 9 8 8 8 9 9 9 9 8 8 8 7 7 7 7 6 7 8 7 6 6 5 5 6 7 4 5 3 5 4 5 3 4 4 4 7 7 4 2 5 8 3 3 4 7 10 12 11 11 8 3 5 7 8 7 7 7 7 8 9 10 10 10 11 11 12 11 10 10
9 10 9 9 10 10 11 11 10 9 10 10 9 9 9 9 8 8 9 9 9 8 9 9 8 8 8 8 8 8 7 6 6 8 8 8 8 7 8 11 11 10 9 9 8 11 9 8 6 5 6 9 11 14 13 13 11 9 7 11 17 18 16 16 12 5 5 6 8 9 8 8 9 10 10 9 9 10 10 9 9 9 10 11 11
Wind_Direction
168 181 163 172 161 163 157 166 158 157 152 143 151 154 152 163 141 152 154 141 153 159 165 159 163 171 153 159 159 157 137 146 150 127 129 140 141 142 143 140 140 142 135 125 131 126 113 121 111 109 133 138 172 182 194 137 177 154 73 284 138 207 219 175 86 68 111 72 314 121 145 171 172 257 249 178 176 124 185 203 144 128 152 174 107
169 182 166 173 167 161 158 171 167 159 154 152 156 160 162 159 153 157 154 150 160 165 167 164 156 174 162 163 162 151 141 171 136 115 134 135 131 142 157 137 143 142 129 129 145 140 152 140 114 152 145 135 164 126 125 167 117 200 154 206 164 183 249 81 63 29 257 162 205 152 179 213 71 246 224 166 184 172 178 155 183 143 142 125 122
174 179 169 172 169 162 160 175 169 162 160 162 158 162 162 155 155 161 154 163 163 164 178 155 176 167 175 165 162 152 156 149 137 128 149 148 149 150 129 137 147 140 141 139 146 141 100 99 168 124 184 134 120 154 149 143 225 136 166 93 150 104 294 108 151 209 190 69 64 105 59 91 344 287 270 182 195 154 176 184 169 140 131 138 152
175 180 174 174 169 165 164 172 171 162 165 164 167 166 166 147 156 169 155 164 167 158 177 159 174 170 166 109 109 134 135 100 106 140 166 154 152 151 145 147 155 154 157 160 148 150 170 149 135 149 134 124 144 190 159 138 177 40 98 127 37 206 167 138 116 9 59 107 95 191 192 158 235 260 227 220 125 168 189 141 145 118 139 148 155
181 183 173 179 169 170 164 172 174 165 170 167 170 171 172 157 159 175 159 165 170 155 174 155 156 155 109 79 79 116 119 123 120 152 155 149 157 157 160 159 169 157 156 159 166 136 116 127 181 142 157 149 166 166 185 162 164 130 170 98 74 49 3 33 42 74 54 349 81 3 64 358 226 221 254 326 331 297 117 66 95 122 134 179 184
189 182 177 180 170 170 163 174 175 169 175 169 175 173 168 159 160 173 164 165 170 160 170 154 153 158 121 151 144 157 148 162 159 158 159 175 168 159 158 168 160 161 156 158 141 142 145 165 194 145 148 143 94 337 138 131 178 137 116 64 125 94 65 19 17 50 87 331 63 92 107 155 253 325 350 280 321 289 99 141 196 126 136 187 142
201 192 180 183 171 172 167 176 178 173 178 169 177 174 165 160 160 173 164 173 169 161 172 154 157 164 168 159 162 174 154 168 173 164 166 169 116 155 152 163 150 176 160 136 162 149 151 164 136 128 138 143 157 190 89 339 103 80 76 85 73 56 65 27 344 58 38 296 189 176 106 167 112 23 346 7 338 325 328 194 168 138 160 170 173
187 223 189 182 174 178 174 178 183 175 176 171 178 174 161 158 162 172 162 178 171 161 178 164 159 167 181 163 176 165 170 161 175 167 165 134 153 157 163 161 165 177 133 130 168 145 150 151 155 115 72 54 141 91 105 106 52 88 102 101 91 73 83 70 358 14 338 324 19 329 109 357 320 194 151 105 199 250 319 270 162 172 180 170 184
188 194 195 183 180 177 176 180 186 176 178 171 183 166 157 158 162 171 166 172 168 161 179 168 164 171 177 175 157 180 167 157 159 173 153 141 149 166 163 157 149 155 135 159 151 152 154 150 158 126 137 218 81 63 133 105 64 66 79 97 127 149 136 140 101 353 320 344 310 356 339 156 236 108 18 297 270 356 339 0 6 24 48 20 340
203 201 189 186 179 180 179 182 189 179 176 170 180 169 165 160 164 171 172 172 168 164 174 173 172 174 179 180 167 179 160 158 174 143 155 135 153 150 138 155 156 160 163 157 151 152 147 156 158 153 162 133 108 53 112 124 148 136 154 109 110 75 45 270 214 174 189 314 265 147 19 337 324 33 196 230 19 15 295 203 134 62 72 81 281
207 201 210 194 179 180 178 186 190 181 173 173 180 171 169 167 167 175 173 177 168 165 174 177 173 185 182 183 172 177 167 163 163 151 160 146 154 154 149 187 173 156 161 162 162 166 153 171 172 146 140 121 135 149 190 167 145 146 125 154 108 87 270 50 286 237 200 229 289 108 241 213 237 259 26 355 352 274 333 338 296 219 158 181 10
190 203 207 205 192 186 185 196 195 186 175 173 184 170 171 167 170 175 173 180 170 169 179 177 182 185 183 188 174 176 180 163 175 161 168 165 172 168 157 182 176 169 168 160 180 172 155 179 152 149 134 159 152 161 48 85 77 104 117 133 140 158 208 128 289 341 293 171 316 206 193 246 145 283 187 154 109 7 25 320 319 310 20 118 128
174 286 202 215 191 187 181 198 188 205 176 171 184 176 172 169 170 175 175 179 173 173 180 179 186 181 183 188 177 178 186 164 174 165 172 175 182 168 163 173 165 190 174 161 181 183 146 179 149 129 151 158 82 107 128 134 101 121 150 160 131 200 168 194 189 231 277 293 216 230 245 278 221 201 274 181 138 111 286 286 286 333 275 181 202
163 194 213 211 199 197 193 188 196 207 191 180 186 177 171 174 171 180 176 179 175 176 181 181 186 180 184 186 181 180 184 175 172 179 178 177 194 176 178 185 176 197 177 178 174 180 154 172 140 156 149 146 134 138 133 136 110 116 18 104 153 11 106 282 196 218 271 249 181 242 280 128 246 182 212 333 166 172 218 218 348 335 334 318 332
173 174 206 215 202 197 190 192 191 197 204 191 188 179 165 167 171 178 177 182 180 178 182 185 183 181 183 184 185 183 185 184 178 186 174 180 191 190 188 176 189 188 178 171 198 153 153 157 156 153 162 153 146 152 155 136 134 105 121 59 68 198 218 225 271 232 225 221 215 181 252 344 328 258 257 195 313 279 176 77 78 7 343 324 258
186 191 193 193 196 194 201 200 199 198 206 199 193 185 174 167 169 178 181 184 182 180 184 187 183 182 182 184 186 186 182 189 183 182 182 188 183 191 200 196 179 165 197 163 183 159 154 155 170 158 169 160 156 176 157 153 152 154 147 155 215 210 257 214 171 246 272 249 236 3 46 283 1 329 37 355 347 22 18 67 73 140 284 330 323
133 104 160 191 183 201 207 200 198 203 209 204 195 162 165 167 171 177 182 186 184 186 185 187 185 185 183 184 187 187 189 192 192 190 197 192 183 190 186 208 179 190 170 186 171 178 158 166 173 169 163 174 168 166 166 151 146 153 167 184 204 196 200 232 22 258 308 335 311 229 208 190 213 285 318 54 56 40 349 19 77 7 128 119 310
146 143 205 286 227 200 202 202 198 197 211 207 139 115 118 199 178 177 183 187 187 188 189 187 187 188 184 188 189 191 193 197 194 192 199 189 190 192 187 191 194 198 194 177 168 172 169 175 170 178 164 178 175 174 173 154 155 174 191 192 212 174 168 186 153 227 259 216 187 226 273 258 188 222 285 195 161 175 166 218 192 211 120 162 310
73 211 236 241 228 193 190 184 196 190 195 178 106 149 132 160 196 193 189 191 191 191 189 188 188 192 190 192 192 193 194 198 198 187 200 192 197 189 206 185 194 194 196 166 170 171 169 177 176 187 171 174 177 175 173 168 164 170 199 199 207 199 186 166 194 207 215 125 302 269 129 253 268 218 157 352 23 298 173 273 333 104 147 175 199
58 98 211 227 231 213 204 199 187 176 101 116 122 70 75 13 281 224 203 192 202 196 190 188 190 194 191 191 195 196 197 199 200 187 196 199 198 187 202 192 191 184 188 183 174 179 176 181 187 190 185 183 179 189 178 177 177 181 192 198 195 187 187 187 204 205 202 163 226 244 200 240 207 316 228 183 190 226 186 181 232 62 107 276 349
35 9 21 218 217 207 211 110 64 78 116 183 156 135 120 180 268 287 253 231 197 220 199 192 190 195 188 189 196 197 201 203 204 196 197 201 197 198 193 203 183 191 180 186 192 185 179 185 188 195 190 184 182 185 185 173 184 187 201 201 174 190 187 194 209 221 177 166 198 244 220 210 173 191 263 256 226 197 194 176 154 218 234 208 203
76 62 36 24 305 225 201 112 134 117 164 169 142 135 157 175 205 268 322 302 287 223 224 199 210 199 199 191 199 196 204 206 207 203 203 201 199 203 190 197 190 193 187 187 186 203 185 185 196 188 202 181 179 178 190 183 179 185 196 208 168 180 191 203 204 204 188 181 199 224 241 206 194 220 240 237 233 225 195 198 175 197 207 212 212
70 65 63 50 53 76 151 89 112 138 155 139 144 178 177 177 193 198 197 216 248 267 352 53 40 330 294 217 200 199 201 207 209 207 205 206 202 201 201 194 199 192 192 196 179 199 194 183 203 185 189 200 178 184 193 195 182 181 192 208 191 179 186 201 207 205 192 192 193 213 221 211 210 202 208 237 265 259 261 252 196 186 197 204 210
72 61 52 54 51 42 39 50 60 64 66 76 133 204 173 173 193 199 211 209 197 177 175 135 139 185 226 323 274 214 204 206 210 210 207 209 202 201 201 202 200 199 189 198 189 188 187 189 201 198 182 203 187 182 192 206 199 183 187 206 229 182 185 196 203 200 208 210 205 206 223 215 217 217 198 207 218 244 230 223 241 219 172 230 224
78 70 56 50 44 42 42 56 63 28 351 12 20 310 312 122 92 15 108 235 339 122 102 76 69 197 201 175 286 276 224 210 210 211 209 208 206 202 198 204 202 207 195 189 197 187 178 185 200 203 190 197 203 190 189 201 207 202 192 199 210 223 207 194 198 202 207 201 202 207 206 221 229 230 214 195 211 229 241 255 230 216 213 201 205
64 61 56 51 38 31 37 43 40 37 34 24 338 352 114 140 95 342 139 256 223 75 119 150 174 183 199 215 202 249 259 222 213 213 211 207 209 204 197 199 205 210 205 188 191 199 186 184 193 199 199 194 202 201 197 208 204 203 202 206 203 202 211 216 219 210 210 217 217 206 216 212 209 213 219 219 217 222 211 217 232 254 245 216 206
67 63 65 64 54 40 29 32 35 47 40 43 38 39 50 91 134 194 172 184 188 177 156 170 189 189 187 215 224 216 250 244 218 219 213 209 208 208 202 197 201 207 211 204 192 196 197 187 189 196 200 196 198 203 200 201 214 213 197 200 211 201 205 207 211 218 216 215 220 218 215 214 218 218 224 227 216 211 220 231 226 207 222 237 271
74 65 64 63 65 63 50 39 41 38 42 27 21 17 44 52 35 16 347 255 173 143 139 116 259 262 237 220 232 266 287 289 257 221 226 212 211 210 205 194 193 205 210 213 205 192 194 197 190 196 201 197 195 202 203 199 204 221 218 199 200 207 206 207 212 209 219 222 211 215 221 210 211 214 217 229 225 222 201 213 212 214 211 214 223
77 78 68 63 62 60 60 61 56 50 47 25 11 9 28 39 33 21 14 29 254 199 173 198 200 208 198 295 357 359 331 318 295 267 230 228 216 209 203 196 186 200 211 214 220 204 189 197 198 195 202 206 202 204 205 203 202 206 220 221 206 206 211 207 206 212 211 220 224 218 217 225 204 204 206 207 217 218 226 212 206 199 202 205 208
69 68 72 69 64 63 62 61 65 68 67 58 357 359 24 27 16 18 29 17 343 121 210 243 149 107 257 266 174 179 32 324 323 317 303 272 237 219 210 200 191 192 200 212 217 225 201 188 193 192 198 209 213 209 203 200 199 204 206 217 215 210 213 212 208 211 216 205 219 228 230 223 218 208 203 205 209 212 197 213 209 188 199 203 213
64 63 66 68 63 61 60 59 60 66 71 69 38 5 21 35 27 9 15 23 11 44 58 23 57 91 59 36 28 43 106 171 300 324 347 333 311 284 245 221 209 192 197 191 209 219 235 206 191 196 199 209 216 219 195 192 194 199 202 211 219 212 209 211 213 212 216 221 215 212 222 238 243 227 205 203 205 208 208 210 217 224 208 201 215
68 59 54 57 59 53 55 56 54 55 58 62 52 15 19 44 39 25 12 25 29 28 32 28 40 50 54 65 114 162 150 92 52 23 348 24 23 358 333 315 267 224 208 200 198 213 221 236 215 198 203 210 215 222 194 190 192 197 202 208 214 224 216 210 216 217 216 215 224 230 225 226 219 212 189 192 202 207 211 215 218 221 226 224 219
61 60 57 51 53 55 51 57 54 49 55 53 38 32 19 20 40 29 20 29 34 34 29 23 25 35 45 42 15 17 28 25 132 252 175 126 97 102 18 337 324 309 276 238 247 218 217 233 246 232 207 203 212 220 196 191 192 195 200 203 216 213 220 222 212 216 219 215 213 220 236 242 240 214 202 193 190 202 209 211 214 221 226 227 230
66 60 55 50 48 50 49 57 56 47 57 63 41 30 25 24 27 35 35 38 33 34 30 24 21 26 30 24 21 25 34 229 208 215 215 159 177 171 164 191 213 297 331 318 271 235 227 231 240 253 253 227 210 207 191 194 197 197 198 201 212 212 216 220 216 211 212 216 216 214 219 230 235 250 238 206 199 202 203 212 220 222 226 236 236
74 66 57 52 45 46 42 49 54 46 38 51 46 30 23 29 16 31 51 41 36 37 35 24 26 22 18 9 6 11 8 356 246 246 245 231 232 145 263 282 242 186 197 222 314 306 272 233 234 242 251 262 253 217 190 191 198 199 203 202 210 217 221 221 222 214 210 210 207 213 217 220 224 224 231 234 212 191 195 206 213 219 223 229 229
61 70 58 46 41 39 38 43 51 47 39 48 41 30 26 29 20 25 38 36 36 41 37 30 29 19 8 4 353 356 2 347 338 268 281 298 275 259 207 162 195 283 299 276 224 245 291 303 284 247 242 251 252 245 189 202 199 199 201 200 210 217 223 227 227 227 225 221 215 211 209 216 218 220 220 219 221 221 215 203 206 212 218 222 226
63 60 57 47 34 28 29 31 68 44 38 53 48 39 22 23 26 24 41 40 30 28 26 35 35 19 7 0 349 345 345 344 326 308 280 273 255 208 124 109 278 228 222 273 273 248 173 236 299 317 294 260 245 248 210 200 206 209 201 208 210 215 219 226 230 230 235 234 234 229 228 228 223 222 215 210 214 211 225 229 232 232 231 236 235
53 64 48 40 34 12 25 21 45 41 26 51 61 49 23 17 19 21 33 40 32 28 16 13 20 21 9 357 352 349 348 350 346 340 329 314 290 250 216 170 207 237 246 218 223 271 247 225 201 228 256 285 274 252 215 206 205 200 193 203 213 216 222 224 229 232 231 241 243 243 238 237 238 239 225 208 209 203 218 225 231 236 238 239 240
47 44 27 27 22 11 5 15 38 28 7 36 48 58 34 18 14 16 20 34 29 23 17 13 3 359 6 359 350 358 359 358 352 339 323 311 312 310 297 258 216 213 239 247 223 219 243 252 237 225 217 231 259 262 232 207 204 199 196 208 207 212 220 224 225 230 230 233 239 243 246 244 243 243 237 223 210 201 217 223 227 234 241 245 243
31 38 11 19 12 17 12 0 27 13 350 34 23 31 32 18 5 13 11 19 23 13 3 6 1 353 358 3 2 360 353 345 356 356 358 338 307 292 280 285 294 263 242 253 265 265 266 261 266 258 258 244 240 253 237 207 201 199 198 203 207 208 218 222 223 227 230 227 231 237 236 236 240 244 243 233 217 205 219 229 231 234 241 243 244
18 24 0 18 16 19 357 355 22 352 8 16 12 25 18 11 356 6 4 6 11 359 353 357 351 352 1 7 5 345 338 340 345 3 352 334 317 302 294 284 284 274 264 268 264 263 266 270 270 272 272 260 249 249 249 206 205 199 200 203 209 211 216 219 223 227 231 235 233 229 232 223 221 229 235 234 222 213 219 228 227 235 235 244 247
8 8 23 19 9 7 351 2 0 356 8 3 5 23 8 358 351 356 354 353 355 344 349 340 343 338 350 0 356 336 333 339 342 12 7 339 329 305 292 289 286 299 295 281 280 271 271 268 267 260 257 269 272 272 264 224 209 205 203 200 208 215 213 219 225 230 232 236 237 236 236 223 211 216 223 226 227 218 214 215 230 232 239 242 240
355 5 15 10 3 358 359 349 347 355 360 357 358 2 352 348 340 347 342 344 336 334 329 332 327 336 342 335 309 313 336 322 341 338 336 314 325 322 308 294 292 298 316 299 281 288 284 279 276 276 281 284 291 304 322 337 315 257 226 211 212 217 211 217 229 230 231 240 242 243 244 238 214 214 217 222 224 225 218 223 230 233 234 237 239
356 357 5 2 353 349 342 340 345 353 352 352 347 338 334 337 335 347 333 333 324 312 308 316 326 332 332 310 315 296 248 272 274 259 273 269 259 293 313 299 280 278 262 255 248 272 285 284 280 284 284 289 313 323 323 331 309 268 249 239 252 262 274 263 237 235 235 239 241 250 259 337 245 224 227 227 225 221 219 224 228 232 234 237 236
354 354 4 354 344 337 338 340 347 347 345 339 335 333 332 331 344 333 332 313 302 305 315 325 326 324 309 314 316 314 281 225 228 244 259 255 253 219 228 309 324 299 252 249 218 233 258 274 286 282 288 296 306 328 324 332 353 40 291 271 244 229 238 246 267 257 244 242 295 350 10 332 50 203 210 224 240 247 246 247 238 230 230 215 228
349 351 355 342 336 337 337 338 341 339 336 339 334 331 328 333 327 320 315 322 334 341 336 327 317 306 309 314 318 315 313 320 296 238 254 260 272 242 187 187 239 256 251 235 228 221 232 246 258 278 289 304 325 354 8 335 220 242 232 223 234 256 263 257 248 269 290 304 297 291 298 291 252 223 218 213 218 231 220 223 231 235 231 223 227
344 346 341 340 338 332 334 333 332 337 333 329 329 328 324 325 322 330 328 337 333 321 313 306 303 307 311 312 304 307 313 309 294 278 231 231 247 267 245 207 220 243 253 214 208 228 230 225 242 261 283 303 313 289 271 278 297 265 278 320 211 255 252 288 297 264 268 265 271 272 267 259 266 272 268 261 272 243 222 217 219 217 216 224 224
338 333 345 335 332 329 326 327 325 326 327 326 326 324 323 328 329 323 326 323 315 316 313 311 308 306 302 301 300 297 295 289 286 279 302 304 252 240 252 264 269 303 355 6 9 351 337 323 291 296 305 328 25 308 278 276 249 226 238 238 221 208 243 248 249 247 243 255 264 273 269 266 260 260 258 252 244 242 238 230 211 197 206 214 223
330 338 336 332 326 322 322 319 321 324 324 323 318 317 319 318 321 323 322 321 315 313 310 305 303 295 290 283 282 279 274 283 296 315 292 270 273 288 313 331 321 1 43 35 349 311 304 321 345 337 334 319 244 246 250 209 231 214 229 280 332 333 318 281 272 284 271 267 259 253 257 255 244 242 246 245 246 246 243 238 234 220 199 204 211
328 328 331 328 325 323 319 317 314 314 314 315 316 316 318 320 320 320 320 312 316 313 308 303 302 300 297 298 300 304 319 326 314 305 303 301 322 324 288 282 285 293 298 268 169 234 258 282 276 276 274 280 283 302 110 235 247 199 246 303 281 259 253 253 248 242 258 272 260 266 262 260 255 246 247 247 246 241 242 238 231 224 218 213 209
333 331 327 325 318 312 308 309 315 318 317 316 316 316 312 312 313 314 317 318 320 317 313 311 305 298 303 308 307 303 304 303 301 300 303 300 289 280 248 234 234 238 229 234 220 230 236 212 209 265 252 243 266 281 272 257 254 254 271 273 268 263 261 259 251 234 250 231 250 256 260 258 256 256 252 249 247 246 243 236 233 226 217 218 214